Location: Coffee Creek Observatory
(38.8077°N, 94.7179°W)
Time: 19:16:20
(UTC-05:00)

Amateur Radio Satellites - All Passes

Search period start: 01 August 2015 18:46
Search period end: 02 August 2015 18:46
Location: Coffee Creek Observatory, 38.8077°N, 94.7179°W

Satellite Date Start Highest point End Downlink Frequencies (MHz)
Time Altitude Azimuth
CUTE-I 01 Aug 18:58:42 19:04:04 79° 257° (WSW) 19:09:28 437.470
HO-68 01 Aug 19:10:12 19:13:16 14° 55° (NE) 19:16:44 435.675
STRAND 1 01 Aug 19:11:14 19:13:45 14° 89° (E) 19:16:31 437.568
GONETS M04 01 Aug 19:17:53 19:25:39 36° 273° (W) 19:33:14
PRISM 01 Aug 19:22:10 19:23:28 11° 90° (E) 19:24:58 437.425
VERMONT LUNAR 01 Aug 19:23:18 19:26:29 76° 162° (SSE) 19:29:40 437.305
Cubesat XI-IV 01 Aug 19:43:48 19:48:31 30° 265° (W) 19:53:10 437.490
PHONESAT 2.4 01 Aug 19:46:29 19:49:15 22° 149° (SSE) 19:52:03 2401.200-2431.200
SO-50 01 Aug 19:52:01 19:56:16 29° 247° (WSW) 20:00:22 436.795
RS-15 01 Aug 20:01:54 20:07:02 16° 100° (E) 20:13:10 29.354- 29.394
CUBESAT XI-V 01 Aug 20:05:01 20:09:23 44° 287° (WNW) 20:13:44 437.345
PCSat 01 Aug 20:06:59 20:11:36 28° 251° (WSW) 20:16:06 145.827
COMPASS 1 01 Aug 20:19:59 20:22:09 14° 67° (ENE) 20:24:30 437.405
DOVE 4 01 Aug 20:21:54 20:25:27 28° 71° (ENE) 20:29:02 437.250
BRITE-PL 01 Aug 20:27:45 20:32:11 77° 258° (WSW) 20:36:24 437.365/2234.400
CINEMA 3 01 Aug 20:28:18 20:30:31 15° 67° (ENE) 20:32:56 145.822/145.860
Cosmos 2499 01 Aug 20:34:22 20:42:41 47° 270° (W) 20:50:57 435.465 / 435.565
SEEDS 01 Aug 20:34:32 20:38:02 26° 71° (ENE) 20:41:38 437.485
GOMX 1 01 Aug 20:35:39 20:39:53 73° 76° (ENE) 20:44:02 467.674
CUTE 1.7 + AOD 2 01 Aug 20:37:59 20:41:51 35° 72° (ENE) 20:45:48 437.475
CANX-2 01 Aug 20:46:11 20:50:18 49° 74° (ENE) 20:54:28 2200.000
Oscar 11 01 Aug 20:47:21 20:48:31 11° 65° (ENE) 20:49:56 145.826/435.025
STRAND 1 01 Aug 20:48:25 20:53:28 62° 287° (WNW) 20:58:29 437.568
HO-68 01 Aug 20:52:51 20:59:57 74° 72° (ENE) 21:07:07 435.675
PRISM 01 Aug 20:55:16 20:59:16 50° 287° (WNW) 21:03:13 437.425
CUBEBUG 2 01 Aug 20:55:20 20:57:18 13° 66° (ENE) 20:59:30 437.445
AAUSAT CUBESAT 2 01 Aug 20:59:08 21:02:51 32° 72° (ENE) 21:06:39 437.432
VERMONT LUNAR 01 Aug 21:00:07 21:03:17 60° 359° (N) 21:06:26 437.305
ISS 01 Aug 21:06:13 21:09:21 48° 137° (SE) 21:12:31 145.825
PHONESAT 2.4 01 Aug 21:23:25 21:26:56 82° 168° (SSE) 21:30:28 2401.200-2431.200
ZACube-1 01 Aug 21:47:31 21:51:10 30° 71° (ENE) 21:54:57 437.345
M-CUBED/EXP-1 PRIME 01 Aug 21:49:06 21:50:43 12° 92° (E) 21:52:37 437.505
COMPASS 1 01 Aug 21:53:22 21:57:27 47° 261° (W) 22:01:33 437.405
DOVE 4 01 Aug 22:00:08 22:03:18 20° 267° (W) 22:06:20 437.250
CINEMA 3 01 Aug 22:03:27 22:07:24 43° 262° (W) 22:11:25 145.822/145.860
RS-15 01 Aug 22:06:56 22:17:47 78° 118° (ESE) 22:29:02 29.354- 29.394
FUNcube-1 01 Aug 22:08:27 22:12:29 51° 74° (ENE) 22:16:40 145.935
SEEDS 01 Aug 22:10:16 22:13:47 24° 266° (W) 22:17:14 437.485
UWE-3 01 Aug 22:12:20 22:16:30 79° 77° (ENE) 22:20:48 435.000/436.395/437.385
CUTE 1.7 + AOD 2 01 Aug 22:14:54 22:17:54 18° 268° (W) 22:20:47 437.475
DELFI C3 01 Aug 22:15:20 22:19:23 73° 75° (ENE) 22:23:28 145.870
AUBIESAT-1 01 Aug 22:16:20 22:19:46 20° 96° (E) 22:23:15 437.475
Oscar 11 01 Aug 22:19:53 22:24:11 66° 259° (WSW) 22:28:32 145.826/435.025
UKube-1 01 Aug 22:22:32 22:25:41 21° 68° (ENE) 22:28:57 .
CANX-2 01 Aug 22:24:29 22:26:34 13° 271° (W) 22:28:26 2200.000
HUMSAT D 01 Aug 22:28:29 22:32:13 35° 72° (ENE) 22:36:04 437.325/437.525
CUBEBUG 2 01 Aug 22:29:33 22:33:35 49° 261° (W) 22:37:45 437.445
AISAT 01 Aug 22:30:30 22:33:15 17° 67° (ENE) 22:36:09 437.250
AAUSAT CUBESAT 2 01 Aug 22:35:29 22:38:33 19° 268° (W) 22:41:31 437.432
VERMONT LUNAR 01 Aug 22:36:55 22:40:06 77° 198° (SSW) 22:43:15 437.305
ISS 01 Aug 22:43:21 22:45:58 22° 334° (NNW) 22:48:33 145.825
CUBEBUG 1 01 Aug 22:43:31 22:45:15 12° 65° (ENE) 22:47:12 437.445
HO-68 01 Aug 22:43:33 22:48:28 19° 270° (W) 22:53:03 435.675
DX 1 01 Aug 22:50:38 22:54:46 46° 73° (ENE) 22:58:57 434.975-435.025
AIST 1 01 Aug 22:50:57 22:53:34 16° 71° (ENE) 22:56:20
UNISAT 6 01 Aug 22:59:04 23:02:31 21° 92° (E) 23:06:07 437.425
PHONESAT 2.4 01 Aug 23:01:31 23:05:01 64° 1° (N) 23:08:30 2401.200-2431.200
VELOX 1 01 Aug 23:07:46 23:11:53 40° 72° (ENE) 23:16:02 145.980
BEESAT 3 01 Aug 23:12:41 23:15:58 24° 113° (ESE) 23:19:21 437.485
M-CUBED/EXP-1 PRIME 01 Aug 23:21:14 23:26:03 71° 290° (WNW) 23:30:42 437.505
ESTCUBE 1 01 Aug 23:22:13 23:26:27 41° 72° (ENE) 23:30:44 437.505/2401.250
Cosmos 2491 01 Aug 23:22:58 23:31:01 41° 73° (ENE) 23:39:10 435.465 / 435.565
ZACube-1 01 Aug 23:24:25 23:27:36 20° 267° (W) 23:30:45 437.345
DUCHIFAT 1 01 Aug 23:35:01 23:37:38 16° 92° (E) 23:40:24 145.980
QB50P1 01 Aug 23:38:36 23:41:35 19° 93° (E) 23:44:41 145.935-145.965
50 SAT 01 Aug 23:38:52 23:42:44 71° 258° (WSW) 23:46:40 437.505
NANOSAT C BR1 01 Aug 23:39:31 23:42:29 19° 93° (E) 23:45:35 145.865
TIGRISAT 01 Aug 23:41:14 23:45:51 56° 100° (E) 23:50:30 435.000
ANTELSAT 01 Aug 23:43:20 23:48:00 62° 100° (E) 23:52:41 437.575/2403.000
YUBILEINY 01 Aug 23:44:15 23:50:34 24° 83° (E) 23:57:17 435.215
FUNcube-1 01 Aug 23:47:30 23:49:14 12° 271° (W) 23:50:45 145.935
AUBIESAT-1 01 Aug 23:50:09 23:54:38 41° 293° (WNW) 23:58:56 437.475
UKube-1 01 Aug 23:57:43 00:01:38 32° 263° (W) 00:05:31 .
HUMSAT D 02 Aug 00:05:18 00:08:07 17° 268° (W) 00:10:49 437.325/437.525
AISAT 02 Aug 00:05:20 00:09:33 42° 262° (W) 00:13:43 437.250
BEESAT 2 02 Aug 00:10:48 00:14:54 86° 121° (ESE) 00:19:03 435.950
AIST 2 02 Aug 00:12:18 00:15:12 19° 111° (ESE) 00:18:14 435.215
VERMONT LUNAR 02 Aug 00:14:15 00:16:31 18° 211° (SSW) 00:18:45 437.305
CUBEBUG 1 02 Aug 00:16:53 00:21:11 58° 260° (W) 00:25:28 437.445
POLYITAN 1 02 Aug 00:21:10 00:25:25 60° 101° (E) 00:29:40 437.675
RS-15 02 Aug 00:21:43 00:31:30 34° 323° (NW) 00:41:27 29.354- 29.394
AIST 1 02 Aug 00:27:29 00:31:25 36° 268° (W) 00:35:18
DX 1 02 Aug 00:28:51 00:31:19 14° 269° (W) 00:33:34 434.975-435.025
UNISAT 6 02 Aug 00:35:05 00:39:26 38° 288° (WNW) 00:43:45 437.425
BUGSAT 1 02 Aug 00:37:52 00:41:52 54° 100° (E) 00:45:55 437.445
POPSAT HIP 1 02 Aug 00:37:54 00:42:11 88° 283° (WNW) 00:46:28 437.405
PHONESAT 2.4 02 Aug 00:39:33 00:43:03 71° 198° (SSW) 00:46:32 2401.200-2431.200
VELOX 1 02 Aug 00:45:43 00:48:39 17° 268° (W) 00:51:25 145.980
QB50P2 02 Aug 00:45:49 00:50:04 68° 285° (WNW) 00:54:18 145.880/145.840
SPROUT 02 Aug 00:49:41 00:53:57 88° 252° (WSW) 00:58:15 437.525
BEESAT 3 02 Aug 00:50:14 00:53:49 28° 309° (NW) 00:57:23 437.485
TISAT 1 02 Aug 00:58:20 01:02:29 70° 76° (ENE) 01:06:39 437.305
ESTCUBE 1 02 Aug 01:00:25 01:03:32 18° 268° (W) 01:06:30 437.505/2401.250
ITUPSAT 1 02 Aug 01:04:41 01:07:13 15° 64° (ENE) 01:09:57 437.325
DUCHIFAT 1 02 Aug 01:09:40 01:13:38 38° 288° (WNW) 01:17:34 145.980
QB50P1 02 Aug 01:13:41 01:17:32 33° 288° (WNW) 01:21:22 145.935-145.965
NANOSAT C BR1 02 Aug 01:14:34 01:18:25 33° 288° (WNW) 01:22:14 145.865
TIGRISAT 02 Aug 01:19:26 01:22:11 15° 294° (WNW) 01:24:44 435.000
Cosmos 2491 02 Aug 01:19:54 01:27:54 41° 272° (W) 01:35:45 435.465 / 435.565
ANTELSAT 02 Aug 01:21:50 01:24:19 14° 295° (WNW) 01:26:36 437.575/2403.000
YUBILEINY 02 Aug 01:38:05 01:46:44 67° 281° (W) 01:55:27 435.215
O/OREOS (USA 219) 02 Aug 01:40:09 01:44:23 46° 107° (ESE) 01:48:44 437.305
AIST 2 02 Aug 01:49:30 01:53:31 40° 307° (NW) 01:57:33 435.215
BEESAT 2 02 Aug 01:52:08 01:53:35 11° 319° (NW) 01:54:53 435.950
BEESAT 02 Aug 01:57:54 02:02:31 51° 73° (ENE) 02:07:11 436.000
POLYITAN 1 02 Aug 01:59:12 02:00:52 12° 295° (WNW) 02:02:19 437.675
ISS 02 Aug 01:59:47 02:01:00 12° 14° (NNE) 02:02:15 145.825
BUGSAT 1 02 Aug 02:15:22 02:16:56 12° 294° (WNW) 02:18:18 437.445
PHONESAT 2.4 02 Aug 02:18:13 02:20:40 18° 212° (SSW) 02:23:04 2401.200-2431.200
SWISSCUBE 02 Aug 02:18:23 02:23:12 89° 264° (W) 02:28:01 437.505
ITAMSAT 1 02 Aug 02:26:56 02:27:41 10° 87° (E) 02:28:50 435.822/435.867
KKS-1 02 Aug 02:36:51 02:40:03 21° 68° (ENE) 02:43:24 437.445
Oscar 19 02 Aug 02:39:38 02:44:47 63° 101° (E) 02:49:56 437.125/150
ITUPSAT 1 02 Aug 02:39:54 02:44:40 60° 259° (W) 02:49:26 437.325
RS-15 02 Aug 02:41:54 02:48:56 18° 357° (N) 02:56:06 29.354- 29.394
Cosmos 2504 02 Aug 02:44:17 02:50:44 40° 88° (E) 02:57:43 435.465 / 435.565
O/OREOS (USA 219) 02 Aug 03:21:07 03:24:08 17° 305° (NW) 03:27:02 437.305
ISS 02 Aug 03:35:02 03:38:08 40° 33° (NNE) 03:41:14 145.825
MOZHAYETS 4 02 Aug 03:36:31 03:37:31 11° 64° (ENE) 03:38:46
BEESAT 02 Aug 03:37:44 03:40:42 16° 269° (W) 03:43:28 436.000
YUBILEINY 02 Aug 03:42:27 03:45:45 12° 304° (NW) 03:48:20 435.215
STARS 02 Aug 03:42:46 03:47:04 64° 75° (ENE) 03:51:25 437.465
Gurwin Techsat 1B 02 Aug 03:46:06 03:51:27 80° 102° (ESE) 03:56:46 435.225
CUSAT 1 02 Aug 03:59:35 04:00:13 11° 95° (E) 04:00:58 437.405
ITAMSAT 1 02 Aug 04:02:44 04:07:57 82° 283° (WNW) 04:13:07 435.822/435.867
JAS-2 02 Aug 04:06:16 04:13:54 52° 98° (E) 04:21:22 435.910
AO-7 02 Aug 04:06:48 04:12:54 23° 92° (E) 04:19:18 29.400- 29.500
KKS-1 02 Aug 04:12:27 04:16:30 34° 263° (W) 04:20:32 437.445
Oscar 19 02 Aug 04:20:32 04:23:41 16° 296° (WNW) 04:26:36 437.125/150
Cosmos 2504 02 Aug 04:36:36 04:43:03 34° 288° (WNW) 04:49:49 435.465 / 435.565
RS-15 02 Aug 04:57:20 05:06:52 29° 31° (NNE) 05:16:59 29.354- 29.394
JUGNU 02 Aug 05:05:52 05:07:43 11° 179° (S) 05:09:34 437.505
MOZHAYETS 4 02 Aug 05:09:31 05:14:09 78° 258° (WSW) 05:18:50
HORYU 2 02 Aug 05:10:43 05:15:14 70° 102° (ESE) 05:19:43 437.375
ISS 02 Aug 05:11:57 05:14:24 19° 228° (SW) 05:16:46 145.825
STARS 02 Aug 05:23:24 05:24:02 10° 272° (W) 05:24:22 437.465
DANDE 02 Aug 05:26:47 05:29:59 46° 280° (W) 05:32:40 436.750
Gurwin Techsat 1B 02 Aug 05:28:18 05:30:49 13° 298° (WNW) 05:33:03 435.225
CUBESAT XI-V 02 Aug 05:31:36 05:34:14 15° 66° (ENE) 05:37:02 437.345
CUSAT 1 02 Aug 05:41:00 05:42:39 14° 285° (WNW) 05:44:09 437.405
JAS-2 02 Aug 05:51:43 05:58:37 34° 294° (WNW) 06:05:18 435.910
AO-7 02 Aug 05:58:11 06:06:30 72° 290° (WNW) 06:14:43 29.400- 29.500
GONETS M04 02 Aug 06:19:49 06:28:11 56° 91° (E) 06:36:37
Cubesat XI-IV 02 Aug 06:23:41 06:26:10 14° 89° (E) 06:28:57 437.490
STRAND 1 02 Aug 06:25:39 06:29:10 20° 66° (ENE) 06:32:52 437.568
HORYU 2 02 Aug 06:49:46 06:51:20 11° 296° (WNW) 06:52:40 437.375
SRMSAT 02 Aug 06:59:43 07:01:31 11° 179° (S) 07:03:20 437.500
CUBESAT XI-V 02 Aug 07:06:41 07:11:17 53° 261° (W) 07:15:51 437.345
RS-15 02 Aug 07:09:37 07:21:30 82° 58° (ENE) 07:33:47 29.354- 29.394
CUTE-I 02 Aug 07:17:17 07:22:22 46° 99° (E) 07:27:28 437.470
Cosmos 2499 02 Aug 07:17:45 07:23:37 27° 84° (E) 07:30:05 435.465 / 435.565
BEESAT 3 02 Aug 07:32:59 07:34:48 13° 42° (NE) 07:36:44 437.485
PRISM 02 Aug 07:43:26 07:47:38 86° 257° (WSW) 07:51:50 437.425
AO-7 02 Aug 07:53:21 07:58:01 16° 309° (NW) 08:02:15 29.400- 29.500
Cubesat XI-IV 02 Aug 08:01:33 08:06:52 68° 287° (WNW) 08:12:08 437.490
STRAND 1 02 Aug 08:03:03 08:08:02 49° 260° (W) 08:13:02 437.568
GONETS M04 02 Aug 08:18:01 08:25:32 30° 291° (WNW) 08:32:50
HO-68 02 Aug 08:24:42 08:27:46 14° 87° (E) 08:31:22 435.675
SO-50 02 Aug 08:26:32 08:28:50 14° 109° (ESE) 08:31:23 436.795
BEESAT 2 02 Aug 08:31:15 08:34:58 34° 52° (NE) 08:38:40 435.950
BRITE-PL 02 Aug 08:32:59 08:37:03 34° 98° (E) 08:41:24 437.365/2234.400
AIST 2 02 Aug 08:35:53 08:37:01 11° 40° (NE) 08:38:19 435.215
M-CUBED/EXP-1 PRIME 02 Aug 08:36:05 08:37:40 12° 58° (ENE) 08:39:28 437.505
GOMX 1 02 Aug 08:38:15 08:41:55 24° 95° (E) 08:45:54 467.674
CUTE-I 02 Aug 08:58:08 09:02:10 22° 294° (WNW) 09:06:04 437.470
AUBIESAT-1 02 Aug 09:02:42 09:05:40 20° 62° (ENE) 09:08:55 437.475
PCSat 02 Aug 09:03:31 09:08:36 44° 112° (ESE) 09:13:46 145.827
Cosmos 2499 02 Aug 09:09:07 09:16:19 52° 284° (WNW) 09:24:05 435.465 / 435.565
BEESAT 3 02 Aug 09:09:13 09:13:15 70° 241° (WSW) 09:17:11 437.485
RS-15 02 Aug 09:23:37 09:33:00 26° 256° (WSW) 09:41:59 29.354- 29.394
COMPASS 1 02 Aug 09:38:12 09:41:52 29° 95° (E) 09:45:33 437.405
SEEDS 02 Aug 09:54:53 09:59:06 59° 100° (E) 10:03:17 437.485
UNISAT 6 02 Aug 09:57:53 10:00:22 15° 66° (ENE) 10:03:03 437.425
DOVE 4 02 Aug 09:58:01 10:02:42 80° 283° (WNW) 10:07:38 437.250
DELFI C3 02 Aug 09:58:19 09:59:02 11° 89° (E) 10:00:01 145.870
CINEMA 3 02 Aug 09:58:33 10:03:08 46° 99° (E) 10:07:51 145.822/145.860
CUTE 1.7 + AOD 2 02 Aug 09:59:42 10:04:01 86° 99° (E) 10:08:18 437.475
FUNcube-1 02 Aug 09:59:54 10:01:29 12° 89° (E) 10:03:21 145.935
UWE-3 02 Aug 10:04:04 10:07:16 19° 92° (E) 10:10:39 435.000/436.395/437.385
SO-50 02 Aug 10:04:08 10:08:51 65° 304° (NW) 10:13:45 436.795
M-CUBED/EXP-1 PRIME 02 Aug 10:07:51 10:11:50 66° 255° (WSW) 10:16:12 437.505
CANX-2 02 Aug 10:08:20 10:12:37 67° 284° (WNW) 10:16:51 2200.000
Oscar 11 02 Aug 10:09:01 10:12:32 24° 94° (E) 10:16:07 145.826/435.025
HO-68 02 Aug 10:09:23 10:16:37 87° 105° (ESE) 10:23:50 435.675
BEESAT 2 02 Aug 10:09:48 10:12:48 20° 248° (WSW) 10:15:41 435.950
BRITE-PL 02 Aug 10:12:04 10:15:27 21° 290° (WNW) 10:18:54 437.365/2234.400
AIST 2 02 Aug 10:12:05 10:16:17 89° 54° (NE) 10:20:24 435.215
GOMX 1 02 Aug 10:16:01 10:20:06 32° 288° (WNW) 10:24:22 467.674
AAUSAT CUBESAT 2 02 Aug 10:18:09 10:22:22 74° 101° (E) 10:26:32 437.432
CUBEBUG 2 02 Aug 10:21:23 10:25:42 37° 97° (E) 10:30:07 437.445
DUCHIFAT 1 02 Aug 10:28:04 10:29:02 11° 65° (ENE) 10:30:14 145.980
QB50P1 02 Aug 10:31:30 10:33:15 13° 66° (ENE) 10:35:13 145.935-145.965
NANOSAT C BR1 02 Aug 10:32:11 10:33:57 13° 66° (ENE) 10:35:54 145.865
AUBIESAT-1 02 Aug 10:36:22 10:40:07 36° 259° (W) 10:44:08 437.475
TIGRISAT 02 Aug 10:38:53 10:42:55 40° 72° (ENE) 10:47:06 435.000
ANTELSAT 02 Aug 10:41:09 10:45:16 44° 73° (ENE) 10:49:33 437.575/2403.000
PCSat 02 Aug 10:47:41 10:52:14 26° 310° (NW) 10:56:44 145.827
ZACube-1 02 Aug 11:12:35 11:17:09 81° 102° (ESE) 11:21:45 437.345
POLYITAN 1 02 Aug 11:12:58 11:16:49 37° 72° (ENE) 11:20:44 437.675
COMPASS 1 02 Aug 11:14:06 11:17:23 22° 291° (WNW) 11:20:34 437.405
50 SAT 02 Aug 11:16:51 11:18:57 14° 91° (E) 11:21:12 437.505
AIST 1 02 Aug 11:21:52 11:22:05 10° 86° (E) 11:22:35
BUGSAT 1 02 Aug 11:26:53 11:30:27 31° 72° (ENE) 11:34:03 437.445
POPSAT HIP 1 02 Aug 11:29:13 11:33:19 57° 74° (ENE) 11:37:28 437.405
DELFI C3 02 Aug 11:30:32 11:34:31 53° 285° (WNW) 11:38:25 145.870
UNISAT 6 02 Aug 11:32:35 11:36:46 47° 261° (W) 11:41:04 437.425
SEEDS 02 Aug 11:32:47 11:34:26 12° 295° (WNW) 11:35:51 437.485
FUNcube-1 02 Aug 11:33:44 11:38:15 61° 284° (WNW) 11:42:46 145.935
CINEMA 3 02 Aug 11:36:43 11:40:02 18° 292° (WNW) 11:43:15 145.822/145.860
QB50P2 02 Aug 11:37:08 11:41:19 75° 76° (ENE) 11:45:33 145.880/145.840
UWE-3 02 Aug 11:39:37 11:43:58 40° 287° (WNW) 11:48:18 435.000/436.395/437.385
Oscar 11 02 Aug 11:44:58 11:48:42 27° 290° (WNW) 11:52:21 145.826/435.025
UKube-1 02 Aug 11:45:58 11:50:05 42° 99° (E) 11:54:11 .
HUMSAT D 02 Aug 11:48:38 11:53:00 83° 100° (E) 11:57:21 437.325/437.525
SO-50 02 Aug 11:48:57 11:50:28 11° 325° (NW) 11:51:47 436.795
YUBILEINY 02 Aug 11:49:45 11:58:26 59° 78° (ENE) 12:07:08 435.215
O/OREOS (USA 219) 02 Aug 11:51:05 11:55:41 73° 68° (ENE) 12:00:16 437.305
AISAT 02 Aug 11:57:02 12:01:09 38° 98° (E) 12:05:17 437.250
CUBEBUG 2 02 Aug 11:58:36 12:02:10 22° 291° (WNW) 12:05:41 437.445
HO-68 02 Aug 11:58:52 12:03:34 18° 302° (WNW) 12:07:56 435.675
DUCHIFAT 1 02 Aug 12:00:14 12:04:22 62° 260° (W) 12:08:31 145.980
QB50P1 02 Aug 12:04:37 12:08:42 52° 260° (W) 12:12:50 145.935-145.965
NANOSAT C BR1 02 Aug 12:05:17 12:09:23 52° 261° (W) 12:13:28 145.865
CUBEBUG 1 02 Aug 12:07:17 12:10:56 27° 95° (E) 12:14:39 437.445
DX 1 02 Aug 12:16:00 12:20:21 77° 284° (WNW) 12:24:41 434.975-435.025
TIGRISAT 02 Aug 12:17:04 12:19:56 16° 269° (W) 12:22:39 435.000
ANTELSAT 02 Aug 12:19:45 12:22:23 15° 270° (W) 12:24:51 437.575/2403.000
Cosmos 2491 02 Aug 12:22:14 12:30:30 50° 90° (E) 12:38:51 435.465 / 435.565
Cosmos 2504 02 Aug 12:33:23 12:36:37 13° 59° (ENE) 12:40:33 435.465 / 435.565
VELOX 1 02 Aug 12:35:27 12:39:52 82° 283° (WNW) 12:44:16 145.980
SPROUT 02 Aug 12:38:36 12:41:25 18° 92° (E) 12:44:24 437.525
TISAT 1 02 Aug 12:46:00 12:47:32 12° 90° (E) 12:49:19 437.305
50 SAT 02 Aug 12:50:00 12:53:43 38° 287° (WNW) 12:57:24 437.505
POLYITAN 1 02 Aug 12:50:10 12:52:55 16° 268° (W) 12:55:30 437.675
ZACube-1 02 Aug 12:52:18 12:52:56 10° 296° (WNW) 12:53:18 437.345
ESTCUBE 1 02 Aug 12:52:32 12:57:02 76° 284° (WNW) 13:01:29 437.505/2401.250
AIST 1 02 Aug 12:54:58 12:59:15 60° 279° (W) 13:03:33
BUGSAT 1 02 Aug 13:03:09 13:06:01 18° 267° (W) 13:08:45 437.445
POPSAT HIP 1 02 Aug 13:08:35 13:09:38 11° 271° (W) 13:10:24 437.405
UKube-1 02 Aug 13:23:08 13:25:54 16° 294° (WNW) 13:28:30 .
Gurwin Techsat 1B 02 Aug 13:29:17 13:31:48 14° 63° (ENE) 13:34:36 435.225
AISAT 02 Aug 13:34:20 13:37:29 19° 293° (WNW) 13:40:30 437.250
ITAMSAT 1 02 Aug 13:42:29 13:45:33 17° 64° (ENE) 13:48:51 435.822/435.867
CUBEBUG 1 02 Aug 13:43:40 13:47:13 24° 290° (WNW) 13:50:41 437.445
YUBILEINY 02 Aug 13:47:30 13:54:47 29° 276° (W) 14:01:46 435.215
Oscar 19 02 Aug 13:55:10 14:00:16 80° 76° (ENE) 14:05:26 437.125/150
BEESAT 02 Aug 14:00:59 14:03:24 14° 90° (E) 14:06:04 436.000
SPROUT 02 Aug 14:13:41 14:17:40 36° 288° (WNW) 14:21:36 437.525
JAS-2 02 Aug 14:19:01 14:23:05 19° 59° (ENE) 14:27:44 435.910
TISAT 1 02 Aug 14:19:34 14:23:40 51° 286° (WNW) 14:27:46 437.305
Cosmos 2491 02 Aug 14:19:50 14:27:41 34° 289° (WNW) 14:35:21 435.465 / 435.565
SWISSCUBE 02 Aug 14:20:36 14:24:31 25° 95° (E) 14:28:29 437.505
Cosmos 2504 02 Aug 14:22:12 14:30:39 70° 80° (E) 14:39:16 435.465 / 435.565
CUSAT 1 02 Aug 14:32:24 14:34:59 15° 74° (ENE) 14:38:13 437.405
ITUPSAT 1 02 Aug 14:41:56 14:46:22 38° 97° (E) 14:50:49 437.325
AO-7 02 Aug 15:04:27 15:11:20 31° 60° (ENE) 15:18:26 29.400- 29.500
Gurwin Techsat 1B 02 Aug 15:05:54 15:11:13 75° 257° (WSW) 15:16:34 435.225
ITAMSAT 1 02 Aug 15:19:27 15:24:37 61° 259° (W) 15:29:47 435.822/435.867
STARS 02 Aug 15:35:27 15:37:25 13° 90° (E) 15:39:37 437.465
BEESAT 02 Aug 15:36:59 15:41:40 55° 286° (WNW) 15:46:18 436.000
Oscar 19 02 Aug 15:39:09 15:40:22 11° 273° (W) 15:41:12 437.125/150
SWISSCUBE 02 Aug 15:58:11 16:02:24 31° 290° (WNW) 16:06:31 437.505
JAS-2 02 Aug 16:01:15 16:07:18 75° 258° (WSW) 16:14:15 435.910
DANDE 02 Aug 16:04:04 16:08:02 82° 79° (E) 16:13:27 436.750
KKS-1 02 Aug 16:04:17 16:08:37 48° 99° (E) 16:12:56 437.445
HORYU 2 02 Aug 16:07:32 16:11:51 54° 74° (ENE) 16:16:14 437.375
CUSAT 1 02 Aug 16:13:10 16:17:30 52° 263° (W) 16:23:14 437.405
Cosmos 2504 02 Aug 16:15:44 16:22:15 24° 277° (W) 16:28:29 435.465 / 435.565
ITUPSAT 1 02 Aug 16:20:23 16:24:03 22° 293° (WNW) 16:27:35 437.325
GONETS M04 02 Aug 16:32:10 16:38:57 25° 66° (ENE) 16:46:01
AO-7 02 Aug 16:55:27 17:03:43 61° 257° (WSW) 17:11:59 29.400- 29.500
SO-50 02 Aug 16:58:08 17:00:26 13° 38° (NE) 17:02:54 436.795
MOZHAYETS 4 02 Aug 17:06:26 17:10:21 27° 94° (E) 17:14:17
STARS 02 Aug 17:09:55 17:14:14 52° 287° (WNW) 17:18:32 437.465
KKS-1 02 Aug 17:42:09 17:44:54 16° 294° (WNW) 17:47:29 437.445
Cubesat XI-IV 02 Aug 17:43:55 17:47:52 22° 66° (ENE) 17:51:59 437.490
HORYU 2 02 Aug 17:46:47 17:48:54 13° 270° (W) 17:50:46 437.375
PCSat 02 Aug 17:52:45 17:57:24 29° 51° (NE) 18:02:07 145.827
VERMONT LUNAR 02 Aug 18:20:50 18:23:53 47° 158° (SSE) 18:26:58 437.305
GONETS M04 02 Aug 18:27:58 18:36:36 67° 267° (W) 18:45:12
